Change the Weather History Date:

Saturday, October 13, 2012

  Actual Average Record
Temperature  
Mean Temperature 64 °F -  
Max Temperature 74 °F - - ()
Min Temperature 55 °F - - ()
Growing Degree Days 14 (Base 50)    
Moisture  
Dew Point 51 °F    
Average Humidity 64    
Maximum Humidity 88    
Minimum Humidity 24    
Precipitation  
Precipitation 0.00 in - - ()
Sea Level Pressure  
Sea Level Pressure 30.07 in    
Wind  
Wind Speed 2 mph ()    
Max Wind Speed 9 mph    
Max Gust Speed -    
Visibility 6.1 miles    
Events      
T = Trace of Precipitation, MM = Missing Value Source: Averaged Metar Reports

Daily Weather History Graph

Daily Weather History Graph

Search for Another Location

Airport or City:

Trip Planner

Search our weather history database for the weather conditions in past years. The results will help you decide how hot, cold, wet, or windy it might be!

Date:

Astronomy

Oct. 13, 2012 Rise Set
Actual Time 6:25 AM WET 5:50 PM WET
Civil Twilight 6:00 AM WET 6:15 PM WET
Nautical Twilight 5:31 AM WET 6:44 PM WET
Astronomical Twilight 5:02 AM WET 7:13 PM WET
Moon 4:04 AM WET (10/13) 4:22 PM WET (10/13)
Length of Visible Light 12h 14m
Length of Day
11h 24m
Waning Crescent, 6% of the Moon is Illuminated
Oct 13
Waning Crescent
Oct 15
New
Oct 22
First Quarter
Oct 29
Full
Nov 7
Last Quarter

Hourly Weather History & Observations

Time (WET) Temp. Dew Point Humidity Pressure Visibility Wind Dir Wind Speed Gust Speed Precip Events Conditions
12:00 AM 59 °F 52 °F 72% 30.10 in 6 mi Calm Calm - -   Clear
12:00 AM 59.0 °F 51.8 °F 77% 30.12 in - Calm Calm - N/A   Clear
1:00 AM 59.0 °F 51.8 °F 77% 30.12 in - Calm Calm - N/A   Clear
2:00 AM 59.0 °F 51.8 °F 77% 30.09 in - WSW 2.3 mph - N/A   Clear
3:00 AM 58 °F 54 °F 83% 30.07 in 6 mi WSW 2.3 mph - -   Clear
3:00 AM 59.0 °F 53.6 °F 82% 30.12 in - WSW 2.3 mph - N/A   Clear
4:00 AM 59.0 °F 51.8 °F 77% 30.09 in - Calm Calm - N/A   Clear
5:00 AM 59.0 °F 55.4 °F 88% 30.09 in - Calm Calm - N/A   Clear
6:00 AM 56 °F 53 °F 85% 30.07 in 6 mi SW 2.3 mph - -   Scattered Clouds
6:00 AM 57.2 °F 53.6 °F 88% 30.09 in - SW 2.3 mph - N/A   Clear
7:00 AM 55.4 °F 51.8 °F 88% 30.09 in 6.2 mi SW 2.3 mph - N/A   Mostly Cloudy
8:00 AM 62.6 °F 55.4 °F 77% 30.12 in 6.2 mi West 2.3 mph - N/A   Scattered Clouds
9:00 AM 64.4 °F 50.0 °F 59% 30.12 in - North - - N/A   Scattered Clouds
11:00 AM 68.0 °F 51.8 °F 56% 30.12 in 6.2 mi NW 4.6 mph - N/A   Scattered Clouds
12:00 PM 71 °F 49 °F 34% 30.02 in 6 mi NW 2.3 mph - -   Scattered Clouds
12:00 PM 71.6 °F 48.2 °F 43% 30.09 in 6.2 mi NW 2.3 mph - N/A   Scattered Clouds
2:00 PM 73.4 °F 44.6 °F 36% 30.04 in 6.2 mi West 4.6 mph - N/A   Partly Cloudy
3:00 PM 74 °F 45 °F 24% 29.96 in 6 mi North 3.5 mph - -   Scattered Clouds
4:00 PM 73.4 °F 48.2 °F 41% 30.04 in 6.2 mi NW 9.2 mph - N/A   Partly Cloudy
5:00 PM 71.6 °F 48.2 °F 43% 30.04 in 6.2 mi NNW 9.2 mph - N/A   Partly Cloudy
6:00 PM 69 °F 49 °F 37% 29.97 in 6 mi NNW 5.8 mph - -   Scattered Clouds
6:00 PM 69.8 °F 48.2 °F 46% 30.04 in 6.2 mi NNW 5.8 mph - N/A   Partly Cloudy
7:00 PM 66.2 °F 53.6 °F 64% 30.04 in - NNW 9.2 mph - N/A   Clear
8:00 PM 64.4 °F 53.6 °F 68% 30.06 in - NW 6.9 mph - N/A   Clear
9:00 PM 61 °F 52 °F 65% 30.03 in 6 mi West 5.8 mph - -   Clear
9:00 PM 60.8 °F 51.8 °F 72% 30.06 in - West 5.8 mph - N/A   Clear
10:00 PM 59.0 °F 51.8 °F 77% 30.06 in - WSW 3.5 mph - N/A   Clear